Flag for Myanmar Weather past 2 weeks in Yangon, Myanmar

Now
77 °F

Passing clouds.


Feels Like: 78 °F
Forecast: 77 / 85 °F
Wind: 2 mph from Southeast

Location: Rangoon Airport

Current Time: Aug 4, 2015 at 6:37:40 AM

Latest Report: Aug 4, 2015 at 6:00 AM


Visibility: 4 mi

Pressure: 29.71 "Hg

Humidity: 94%

Dew point: 75 °F

Location of YangonLocation

Historic Weather in Yangon — Graph

°F

Yangon temperature yesterday

Maximum temperature yesterday: 84 °F (at 10:00 AM)
Minimum temperature yesterday: 75 °F (at 12:00 AM)
Average temperature yesterday: 79 °F

Past Weeks' High & Low Weather Summary

 TemperatureHumidityPressure
High88 °F (Jul 29, 1:30 PM)100% (Jul 20, 6:00 AM)29.92 "Hg (Jul 20, 6:00 AM)
Low73 °F (Jul 25, 6:00 AM)70% (Jul 24, 4:30 PM)29.65 "Hg (Jul 20, 5:30 AM)
Average79 °F93%29.78 "Hg
* Reported Jul 20 5:30 AM — Aug 4 5:30 AM, Yangon, Weather by CustomWeather, © 2015

Note: Actual official high and low records may vary slightly from our data, if they occured in-between our weather recording intervals... More about our weather records

Advertising

Yangon weather history for previous 24 hours

 ConditionsComfort  
Time TempWeatherWind HumidityBarometerVisibility
5:30 AM
Tue, Aug 4
77 °FPassing clouds.5 mph94%29.71 "Hg4 mi
5:00 AM79 °FPassing clouds.3 mph94%29.71 "Hg4 mi
4:30 AM79 °FPassing clouds.5 mph94%29.71 "Hg4 mi
4:00 AM79 °FPassing clouds.3 mph94%29.71 "Hg4 mi
12:00 AM79 °FPassing clouds.6 mph94%29.77 "Hg4 mi
11:30 PM
Mon, Aug 3
79 °FPassing clouds.3 mph94%29.80 "Hg4 mi
11:00 PM79 °FMostly cloudy.3 mph94%29.80 "Hg4 mi
10:30 PM79 °FMostly cloudy.6 mph94%29.77 "Hg4 mi
10:00 PM79 °FMostly cloudy.6 mph94%29.77 "Hg4 mi
9:30 PM79 °FMostly cloudy.3 mph94%29.77 "Hg4 mi
9:00 PM79 °FMostly cloudy.3 mph94%29.77 "Hg4 mi
8:30 PM79 °FMostly cloudy.3 mph94%29.77 "Hg4 mi
8:00 PM79 °FMostly cloudy.3 mph94%29.77 "Hg4 mi
7:30 PM79 °FMostly cloudy.3 mph94%29.74 "Hg4 mi
7:00 PM79 °FMostly cloudy.7 mph94%29.74 "Hg4 mi
6:30 PM79 °FDrizzle. Mostly cloudy.5 mph94%29.71 "Hg4 mi
6:00 PM79 °FDrizzle. Mostly cloudy.7 mph94%29.71 "Hg4 mi
5:30 PM79 °FDrizzle. Mostly cloudy.5 mph89%29.71 "Hg4 mi
5:00 PM79 °FDrizzle. Mostly cloudy.7 mph89%29.71 "Hg4 mi
4:00 PM79 °FMostly cloudy.9 mph89%29.71 "Hg4 mi
3:30 PM79 °FDrizzle. Mostly cloudy.7 mph89%29.74 "Hg4 mi
2:30 PM81 °FMostly cloudy.12 mph89%29.74 "Hg4 mi
2:00 PM81 °FMostly cloudy.9 mph84%29.74 "Hg4 mi
1:30 PM82 °FMostly cloudy.9 mph94%29.74 "Hg4 mi
1:00 PM84 °FMostly cloudy.9 mph84%29.74 "Hg4 mi
12:00 PM84 °FDrizzle. Mostly cloudy.3 mph84%29.77 "Hg4 mi
11:00 AM84 °FRain. Mostly cloudy.8 mph84%29.77 "Hg3 mi
10:30 AM84 °FMostly cloudy.6 mph84%29.77 "Hg4 mi
10:00 AM84 °FMostly cloudy.8 mph84%29.80 "Hg4 mi
9:30 AM82 °FMostly cloudy.6 mph94%29.80 "Hg4 mi
9:00 AM82 °FMostly cloudy.7 mph94%29.80 "Hg4 mi
8:30 AM81 °FMostly cloudy.7 mph94%29.80 "Hg4 mi
8:00 AM79 °FMostly cloudy.6 mph94%29.77 "Hg4 mi
7:00 AM77 °FMostly cloudy.3 mph94%29.77 "Hg4 mi
6:30 AM77 °FMostly cloudy.5 mph94%29.77 "Hg4 mi
6:00 AM77 °FMostly cloudy.5 mph94%29.77 "Hg4 mi
Weather by CustomWeather, © 2015

See weather overviewHow to use our weather pages